CZ-4 DEB

基本信息
目录编号:
20913
目录名称:
CZ-4 DEB
国际标识:
1990-081BW
轨道中心:
EARTH
物体状态:
在轨
发射日期:
1990-09-03 UTC
轨道信息
数据来源: 国际轨道数据
星历时间: 2026-07-13T06:42:52+0800
半长轴: 7228.712km
偏心率: 0.0097027
轨道倾角: 98.879°
近地点辐角: 281.274°
升交点赤经: 179.897°
平近点角: 135.495°
近地点: 780.436km
远地点: 920.714km
周期: 101.942分钟
每日圈数: 14.125747
详细信息
发射场:
TSC
轨道高度:
LEO
数据来源:
AOE Integration Group
参考系:
TEME
时间系统:
UTC
历元类型:
SGP4
2D轨道图
3D轨道图
轨道高度分析图
轨道倾角分析图
轨道综合分析图
查看轨道综合分析图